This is the latest recevied weather packets stored in our database for station/object JQ1YUX-13. If no packets are shown the sender has not sent any weather packets the latest 10 day(s).
| Time | Temp. | Humidity | Pressure | Rain* | Wind** | Luminosity | Snow |
|---|---|---|---|---|---|---|---|
| 1777174084 | 22.22° C | 56% | 1017.9 hPa | 0 mm | - | - | - |
| 1777173184 | 22.22° C | 55% | 1018 hPa | 0 mm | - | - | - |
| 1777172285 | 22.22° C | 56% | 1018.4 hPa | 0 mm | - | - | - |
| 1777171385 | 21.11° C | 58% | 1018.6 hPa | 0 mm | - | - | - |
| 1777170485 | 21.11° C | 58% | 1018.9 hPa | 0 mm | - | - | - |
| 1777169586 | 21.11° C | 60% | 1019.3 hPa | 0 mm | - | - | - |
| 1777168685 | 21.11° C | 61% | 1019.7 hPa | 0 mm | - | - | - |
| 1777167785 | 21.11° C | 58% | 1019.9 hPa | 0 mm | - | - | - |
| 1777166885 | 21.11° C | 59% | 1020.3 hPa | 0 mm | - | - | - |
| 1777165985 | 21.11° C | 59% | 1020.4 hPa | 0 mm | - | - | - |
| 1777165084 | 20° C | 59% | 1020.4 hPa | 0 mm | - | - | - |
| 1777164185 | 20.56° C | 62% | 1020.9 hPa | 0 mm | - | - | - |
| 1777163284 | 19.44° C | 63% | 1021.1 hPa | 0 mm | - | - | - |
| 1777162384 | 19.44° C | 64% | 1021 hPa | 0 mm | - | - | - |
| 1777161485 | 18.89° C | 68% | 1021.1 hPa | 0 mm | - | - | - |
| 1777160586 | 17.78° C | 69% | 1021.4 hPa | 0 mm | - | - | - |
| 1777159686 | 17.22° C | 73% | 1021.5 hPa | 0 mm | - | - | - |
| 1777158785 | 16.11° C | 76% | 1021.8 hPa | 0 mm | - | - | - |
| 1777157886 | 15.56° C | 77% | 1021.7 hPa | 0 mm | - | - | - |
| 1777156985 | 14.44° C | 79% | 1021.7 hPa | 0 mm | - | - | - |
| 1777156085 | 13.89° C | 81% | 1021.7 hPa | 0 mm | - | - | - |
| 1777155185 | 13.33° C | 84% | 1021.9 hPa | 0 mm | - | - | - |
| 1777154286 | 12.78° C | 86% | 1021.8 hPa | 0 mm | - | - | - |
| 1777153386 | 12.22° C | 87% | 1021.7 hPa | 0 mm | - | - | - |
| 1777152485 | 12.22° C | 88% | 1021.8 hPa | 0 mm | - | - | - |
* Rain latest hour (hover to see other rain measurements)
** Current wind speed in m/s (hover to see current wind gust speed)